Home > Weather > Talkeetna > Past weeks

Flag for USA Past Weather in Talkeetna, Alaska, USA — Yesterday and Last 2 Weeks

Now
56 °F

Light rain. Overcast.


Feels Like: 56 °F
Forecast: 54 / 70 °F
Wind: 3 mph from North

Location: Talkeetna Weather Reporting Station

Current Time: Jul 27, 2016 at 7:35:39 AM

Latest Report: Jul 27, 2016 at 6:53 AM


Visibility: 10 mi

Pressure: 29.90 "Hg

Humidity: 93%

Dew Point: 54 °F

Location of TalkeetnaLocation

Past Weather in Talkeetna — Graph

°F

Talkeetna Temperature Yesterday

Maximum temperature yesterday: 69 °F (at 4:53 PM)
Minimum temperature yesterday: 54 °F (at 4:53 AM)
Average temperature yesterday: 61 °F

High & Low Weather Summary for the Past Weeks

 TemperatureHumidityPressure
High82 °F (Jul 12, 5:53 PM)97% (Jul 13, 2:53 AM)30.37 "Hg (Jul 13, 2:53 AM)
Low53 °F (Jul 19, 5:53 AM)31% (Jul 18, 2:53 PM)29.52 "Hg (Jul 23, 4:53 PM)
Average64 °F70%29.96 "Hg
* Reported Jul 12 5:53 AM — Jul 27 5:53 AM, Talkeetna, Weather by CustomWeather, © 2016

Note: Actual official high and low records may vary slightly from our data, if they occured in-between our weather recording intervals... More about our weather records

Advertising

Talkeetna Weather History for the Previous 24 Hours

Scroll right to see more
 ConditionsComfort  
Time TempWeatherWind HumidityBarometerVisibility
5:53 AM
Wed, Jul 27
56 °FLight rain. Overcast.No wind93%29.89 "Hg10 mi
4:53 AM56 °FLight rain. Overcast.No wind93%29.89 "Hg10 mi
3:53 AM57 °FOvercast.No wind87%29.89 "Hg10 mi
2:53 AM58 °FOvercast.3 mph87%29.89 "Hg10 mi
1:53 AM60 °FPassing clouds.5 mph75%29.88 "Hg10 mi
12:53 AM60 °FOvercast.5 mph80%29.88 "Hg10 mi
11:53 PM
Tue, Jul 26
62 °FScattered clouds.9 mph73%29.88 "Hg10 mi
10:53 PM63 °FPartly sunny.7 mph68%29.86 "Hg10 mi
9:53 PM64 °FMore clouds than sun.No wind73%29.85 "Hg10 mi
8:53 PM65 °FMore clouds than sun.No wind68%29.84 "Hg10 mi
7:53 PM67 °FPartly sunny.No wind59%29.83 "Hg10 mi
6:53 PM68 °FOvercast.No wind51%29.83 "Hg10 mi
5:53 PM68 °FSunny.5 mph47%29.83 "Hg10 mi
4:53 PM69 °FSunny.No wind44%29.84 "Hg10 mi
3:53 PM68 °FPassing clouds.3 mph51%29.85 "Hg10 mi
2:53 PM66 °FScattered clouds.No wind56%29.87 "Hg10 mi
1:53 PM64 °FOvercast.No wind56%29.88 "Hg10 mi
12:53 PM64 °FPassing clouds.No wind65%29.89 "Hg10 mi
11:53 AM63 °FOvercast.No wind70%29.89 "Hg10 mi
10:53 AM61 °FOvercast.No wind75%29.89 "Hg10 mi
9:53 AM60 °FMostly cloudy.No wind80%29.90 "Hg10 mi
8:53 AM58 °FMore clouds than sun.No wind90%29.90 "Hg10 mi
7:53 AM56 °FPartly sunny.No wind90%29.90 "Hg10 mi
Weather by CustomWeather, © 2016

See weather overviewHow to use our weather pages